User: anonymous   Login
Location: Ellerstadt
(49.4644°N, 8.2615°E)
Time: 14:32:54
(UTC+00:00)
Language:

SPOT 3 Rocket - Orbit

View from above orbital plane
View from above orbital plane
View from above satellite
View from above satellite

Ground track
Ground track

The orbit data is extracted from the following two-line orbital elements,

1 22830U 93061H   21127.14254084 -.00000011  00000-0  12874-4 0  9994
2 22830  98.7169 184.5412 0012138  93.5517 266.7054 14.31479660441388
Epoch (UTC): 07 May 2021 03:25:15
Eccentricity: 0.0012138
inclination: 98.7169°
perigee height: 778 km
apogee height: 795 km
right ascension of ascending node: 184.5412°
argument of perigee: 93.5517°
revolutions per day: 14.31479660
mean anomaly at epoch: 266.7054°
orbit number at epoch: 44138

The dashed part of the orbit path shows where the satellite is in the earth's shadow,  

DLR